Miscellaneous Local Product
Issued by NWS Hastings, NE

Home | Current Version | Previous Version | Text Only | Print | Product List | Glossary On
Versions: 1 2 3 4 5 6 7 8 9 10 11 12 13 14 15 16 17 18 19 20 21 22 23 24 25 26 27 28 29 30 31 32 33 34 35 36 37 38 39 40 41 42 43 44 45 46 47 48 49 50
000
AXUS43 KGID 221802
MISGRI

GID CWA HOURLY WEATHER ROUNDUP
NATIONAL WEATHER SERVICE HASTINGS NE
1200 PM CST WED FEB 22 2017

NOTE: "FAIR" INDICATES FEW OR NO CLOUDS BELOW 12,000 FEET WITH NO
SIGNIFICANT WEATHER AND/OR OBSTRUCTIONS TO VISIBILITY.

...SOUTH CENTRAL NEBRASKA...

CITY           SKY/WX    TMP DP  RH WIND       PRES   REMARKS
GRAND ISLAND   SUNNY     68  37  32 NW16G23   29.73F
HASTINGS       SUNNY     68  33  27 NW18      29.73F
KEARNEY        SUNNY     66  30  26 NW16G23   29.75F
ORD            SUNNY     65  22  19 NW23G35   29.72F
YORK           SUNNY     68  37  32 NW22G28   29.70R
AURORA         SUNNY     68  36  30 NW21      29.72R
LEXINGTON      SUNNY     64  28  25 NW16G22   29.78R
HOLDREGE       SUNNY     64  29  26 NW14G20   29.76S
HEBRON         SUNNY     71  33  24 NW12      29.70F

...NEBRASKA PANHANDLE...

CITY           SKY/WX    TMP DP  RH WIND       PRES   REMARKS
CHADRON        SUNNY     55  20  25 W26G36    29.80F
ALLIANCE       SUNNY     53  22  29 NW22G32   29.81F
SCOTTSBLUFF    PTSUNNY   53  22  29 W17       29.83F
SIDNEY         SUNNY     57  16  20 NW25G35   29.82F

...WESTERN AND NORTH CENTRAL NEBRASKA...

CITY           SKY/WX    TMP DP  RH WIND       PRES   REMARKS
VALENTINE      SUNNY     56  31  38 N20G29    29.75R
AINSWORTH      SUNNY     58  33  39 NW17G26   29.75S
ONEILL         SUNNY     62  35  37 NW21G28   29.71S
BROKEN BOW     SUNNY     64  26  23 NW28G35   29.75S
IMPERIAL       SUNNY     58  22  24 NW12      29.84S
NORTH PLATTE   SUNNY     62  26  25 NW15      29.80F
MCCOOK         SUNNY     64  28  25 NW16      29.80F

...EASTERN NEBRASKA...

CITY           SKY/WX    TMP DP  RH WIND       PRES   REMARKS
NORFOLK        SUNNY     66  36  32 NW18      29.67S
SO SIOUX CITY  SUNNY     66  41  40 NW7       29.64S
TEKAMAH        SUNNY     68  40  35 N10       29.63F
COLUMBUS       SUNNY     68  39  34 NW21      29.69S
ALBION         SUNNY     67  27  21 NW20G25   29.70S
OMAHA EPPLEY   SUNNY     67  36  31 NW8       29.65S
MILLARD        SUNNY     67  38  35 NW10      29.66R
LINCOLN        SUNNY     72  36  26 NW18      29.68S
NEBRASKA CITY  SUNNY     65  26  23 W7G16     29.67S
BEATRICE       SUNNY     71  34  25 NW6G16    29.68S
FALLS CITY     SUNNY     70  34  26 SW10      29.67F

...NORTHERN KANSAS...

CITY           SKY/WX    TMP DP  RH WIND       PRES   REMARKS
GOODLAND       SUNNY     60  23  24 N9        29.85F
HILL CITY      SUNNY     70  34  26 NW10      29.80S
NORTON         CLEAR     68  21  17 NW16      29.77F
PHILLIPSBURG   SUNNY     70  34  26 NW9       29.77F
SMITH CENTER   SUNNY     68  34  28 NW8G16    29.76F
HAYS             N/A     70  35  27 N12G18    29.77F
RUSSELL        SUNNY     68  30  24 MISG      29.75F
CONCORDIA      SUNNY     69  30  23 NW10      29.72S
SALINA         MOSUNNY   74  27  17 NW12      29.73F
TOPEKA         CLOUDY    72  37  28 SW9G18    29.70F



USA.gov is the U.S. government's official web portal to all federal, state and local government web resources and services.